sat.trackr.live / text

‹ back to catalog

SOCRATES

NORAD 39768 · 2014-029C

PAYLOAD ACTIVE UNKNOWN

§ Identity

Operator
Country
JPN
Launch date
2014-05-24
Launch site
TANSC
Launch vehicle
Mass (kg)
RCS (m²)
0.33

External: N2YO · Heavens-Above · Gunter

§ Orbital elements

Epoch: 2026-09-19T13:06:47.025504Z

Period
96.32 min
Inclination
97.9155°
Eccentricity
0.0006828
Mean motion
14.95068650 rev/d
Perigee alt
577.4 km
Apogee alt
586.9 km
Semi-major
6,960.3 km
B*
1.3569e-4
RAAN
16.7930°
Arg perigee
37.8925°
Mean anomaly
322.2775°
Rev number
66,850

§ Raw data

SOCRATES1 39768U 14029C   26262.54637761  .00001427  00000+0  13569-3 0  99962 39768  97.9155  16.7930 0006828  37.8925 322.2775 14.95068650668502

JSON: /api/v1/satellites/39768 · /tle

For live sub-satellite position, see the globe view (requires WebGL).

§ Visibility from observer

Set your observer location to see the next 7 days of passes ≥ 10°. The values pass through the URL so the page stays shareable.

No JS? Fill the form by hand. The geolocation button needs JavaScript.